Washington County, Wisconsin, United States
Lat: 43.37N, Lon: 88.22W
Wx Zone: WIZ059
Local Info
Past Weather Observations for Today

NOTE: This archive is for the closest National Weather Service station to Washington County. Information may differ from the station used for current weather conditions.

Click here for Long-term Archive

Time Weather Temperature Dewpoint Humidity Pressure Winds Precip Visibility
12:50
Overcast
30°F / -1°C 19°F / -7°C 64% 30.15 in
(1021 mb)
NW 4.6 mph
(NW 7 kph)
- 10SM
12:30
Overcast
30°F / -1°C 19°F / -7°C 64% 30.15 in
(1021 mb)
NW 4.6 mph
(NW 7 kph)
- 10SM
12:10
Overcast
30°F / -1°C 19°F / -7°C 64% 30.15 in
(1021 mb)
NW 6.9 mph
(NW 11 kph)
- 10SM
11:50
Overcast
30°F / -1°C 19°F / -7°C 64% 30.15 in
(1021 mb)
NW 8.1 mph
(NW 13 kph)
- 10SM
11:30
Overcast
30°F / -1°C 19°F / -7°C 64% 30.18 in
(1022 mb)
NW 8.1 mph
(NW 13 kph)
- 10SM
11:10
Overcast
30°F / -1°C 19°F / -7°C 64% 30.18 in
(1022 mb)
WNW 8.1 mph
(WNW 13 kph)
- 10SM
10:50
Overcast
32°F / 0°C 18°F / -8°C 55% 30.18 in
(1022 mb)
WNW 8.1 mph
(WNW 13 kph)
- 10SM
10:30
Partly Cloudy
30°F / -1°C 18°F / -8°C 59% 30.15 in
(1021 mb)
W 8.1 mph
(W 13 kph)
- 10SM
10:10
Clear
30°F / -1°C 18°F / -8°C 59% 30.15 in
(1021 mb)
SSW 8.1 mph
(SSW 13 kph)
- 10SM
09:50
Clear
30°F / -1°C 18°F / -8°C 59% 30.15 in
(1021 mb)
SSW 10.4 mph
(SSW 17 kph)
- 10SM
09:30
Clear
28°F / -2°C 18°F / -8°C 64% 30.18 in
(1022 mb)
SSW 11.5 mph
(SSW 19 kph)
- 10SM
09:10
Clear
28°F / -2°C 18°F / -8°C 64% 30.15 in
(1021 mb)
SSW 10.4 mph
(SSW 17 kph)
- 10SM
08:50
Clear
27°F / -3°C 18°F / -8°C 69% 30.15 in
(1021 mb)
SSW 10.4 mph
(SSW 17 kph)
- 10SM
08:30
Clear
27°F / -3°C 18°F / -8°C 69% 30.18 in
(1022 mb)
SSW 8.1 mph
(SSW 13 kph)
- 10SM
08:10
Clear
27°F / -3°C 18°F / -8°C 69% 30.18 in
(1022 mb)
SSW 8.1 mph
(SSW 13 kph)
- 10SM
07:50
Clear
25°F / -4°C 18°F / -8°C 74% 30.18 in
(1022 mb)
SSW 6.9 mph
(SSW 11 kph)
- 10SM
07:30
Partly Cloudy
23°F / -5°C 18°F / -8°C 80% 30.18 in
(1022 mb)
SSW 6.9 mph
(SSW 11 kph)
- 10SM
07:10
Overcast
25°F / -4°C 18°F / -8°C 74% 30.18 in
(1022 mb)
SSW 8.1 mph
(SSW 13 kph)
- 10SM
06:50
Overcast
25°F / -4°C 18°F / -8°C 74% 30.18 in
(1022 mb)
SSW 8.1 mph
(SSW 13 kph)
- 10SM
06:30
Overcast
25°F / -4°C 18°F / -8°C 74% 30.15 in
(1021 mb)
SSW 5.8 mph
(SSW 9 kph)
- 10SM
06:10
Overcast
27°F / -3°C 18°F / -8°C 69% 30.15 in
(1021 mb)
SSW 6.9 mph
(SSW 11 kph)
- 10SM
05:50
Overcast
27°F / -3°C 18°F / -8°C 69% 30.15 in
(1021 mb)
SSW 5.8 mph
(SSW 9 kph)
- 10SM
05:30
Overcast
25°F / -4°C 18°F / -8°C 74% 30.15 in
(1021 mb)
SW 5.8 mph
(SW 9 kph)
- 10SM
05:10
Overcast
23°F / -5°C 18°F / -8°C 80% 30.18 in
(1022 mb)
SW 5.8 mph
(SW 9 kph)
- 10SM
04:50
Mostly Cloudy
21°F / -6°C 16°F / -9°C 80% 30.18 in
(1022 mb)
SW 3.5 mph
(SW 6 kph)
- 10SM
04:30
Clear
19°F / -7°C 14°F / -10°C 79% 30.18 in
(1022 mb)
SW 4.6 mph
(SW 7 kph)
- 10SM
04:10
Clear
19°F / -7°C 14°F / -10°C 79% 30.18 in
(1022 mb)
SW 4.6 mph
(SW 7 kph)
- 10SM
03:50
Clear
19°F / -7°C 14°F / -10°C 79% 30.21 in
(1023 mb)
SW 5.8 mph
(SW 9 kph)
- 10SM
03:30
Partly Cloudy
19°F / -7°C 14°F / -10°C 79% 30.21 in
(1023 mb)
SW 5.8 mph
(SW 9 kph)
- 10SM
03:10
Partly Cloudy
21°F / -6°C 14°F / -10°C 74% 30.21 in
(1023 mb)
SW 4.6 mph
(SW 7 kph)
- 10SM
02:50
Mostly Cloudy
21°F / -6°C 14°F / -10°C 74% 30.21 in
(1023 mb)
SW 4.6 mph
(SW 7 kph)
- 10SM
02:30
Overcast
23°F / -5°C 14°F / -10°C 68% 30.21 in
(1023 mb)
SW 6.9 mph
(SW 11 kph)
- 10SM
02:10
Overcast
21°F / -6°C 14°F / -10°C 74% 30.24 in
(1024 mb)
SW 6.9 mph
(SW 11 kph)
- 10SM
01:50
Overcast
21°F / -6°C 14°F / -10°C 74% 30.24 in
(1024 mb)
SW 5.8 mph
(SW 9 kph)
- 10SM
01:30
Overcast
21°F / -6°C 14°F / -10°C 74% 30.24 in
(1024 mb)
SW 6.9 mph
(SW 11 kph)
- 10SM
01:10
Overcast
19°F / -7°C 12°F / -11°C 73% 30.24 in
(1024 mb)
SW 3.5 mph
(SW 6 kph)
- 10SM
00:50
Mostly Cloudy
19°F / -7°C 12°F / -11°C 73% 30.27 in
(1025 mb)
SW 3.5 mph
(SW 6 kph)
- 10SM
00:30
Clear
19°F / -7°C 12°F / -11°C 73% 30.27 in
(1025 mb)
SW 3.5 mph
(SW 6 kph)
- 10SM
00:10
Clear
19°F / -7°C 12°F / -11°C 73% 30.27 in
(1025 mb)
SW 5.8 mph
(SW 9 kph)
- 10SM
Time Weather Temperature Dewpoint Humidity Pressure Winds Precip Visibility


Weather for websites

WeatherForYou.com, LLC is not responsible for any damages or problems caused by this service. Current weather conditions are obtained from the closest station including government and personal stations which may have varying degrees of accuracy. Weather forecasts are derived from the NOAA NDFD. Like all things, this site belongs to Jesus Christ... He just trusts me to maintain it. If you have any questions or comments email webmaster@weatherforyou.com

Copyright © 2015, WeatherForYou.com LLC. All rights reserved.